When you browse on this site, cookies collect data to enhance your experience and personalize the content and advertising you see.
Visit our Privacy Policy to learn more. By continuing to use the site, you agree to this use of cookies and data.
  • In Hungary
  • List of Countries
  • For 7 days
  • Water Temperature
  • Weather Map
  • News
  • Weather Widgets
  • user-avatar
    Login

    Hourly Weather Capriana

    Today, 19 November, Tuesday

    Time Temperature Precipitation Wind Pressure Humidity
    00:00 +10°C° 0 mm 4 mps 743 mmHg 94%
    01:00 +10°C° 0 mm 4 mps 743 mmHg 94%
    02:00 +10°C° 0 mm 3 mps 743 mmHg 94%
    03:00 +10°C° 0 mm 3 mps 743 mmHg 95%
    04:00 +10°C° 0 mm 3 mps 743 mmHg 95%
    05:00 +10°C° 0 mm 3 mps 743 mmHg 95%
    06:00 +10°C° 0.2 mm 3 mps 744 mmHg 95%
    07:00 +10°C° 0.2 mm 3 mps 744 mmHg 95%
    08:00 +11°C° 0.2 mm 3 mps 744 mmHg 96%
    09:00 +11°C° 0.1 mm 3 mps 744 mmHg 94%
    10:00 +11°C° 0.1 mm 3 mps 744 mmHg 92%
    11:00 +11°C° 0.1 mm 3 mps 745 mmHg 90%
    12:00 +12°C° 0.1 mm 3 mps 744 mmHg 88%
    13:00 +12°C° 0.1 mm 3 mps 744 mmHg 87%
    14:00 +12°C° 0.1 mm 3 mps 744 mmHg 85%
    15:00 +12°C° 0 mm 3 mps 744 mmHg 85%
    16:00 +12°C° 0 mm 3 mps 744 mmHg 86%
    17:00 +12°C° 0 mm 3 mps 744 mmHg 87%
    18:00 +11°C° 0 mm 3 mps 744 mmHg 87%
    19:00 +11°C° 0 mm 3 mps 744 mmHg 87%
    20:00 +11°C° 0 mm 4 mps 744 mmHg 87%
    21:00 +10°C° 0 mm 3 mps 744 mmHg 88%
    22:00 +10°C° 0 mm 3 mps 744 mmHg 89%
    23:00 +10°C° 0 mm 3 mps 744 mmHg 91%

    Tomorrow, 20 November, Wednesday

    Time Temperature Precipitation Wind Pressure Humidity
    00:00 +10°C° 0 mm 3 mps 744 mmHg 91%
    01:00 +10°C° 0 mm 3 mps 744 mmHg 91%
    02:00 +10°C° 0 mm 3 mps 744 mmHg 91%
    03:00 +10°C° 0 mm 3 mps 744 mmHg 91%
    04:00 +10°C° 0 mm 3 mps 744 mmHg 92%
    05:00 +9°C° 0 mm 3 mps 744 mmHg 92%
    06:00 +9°C° 0 mm 3 mps 744 mmHg 92%
    07:00 +9°C° 0 mm 3 mps 744 mmHg 92%
    08:00 +9°C° 0 mm 3 mps 744 mmHg 91%
    09:00 +9°C° 0 mm 3 mps 744 mmHg 87%
    10:00 +8°C° 0 mm 4 mps 744 mmHg 83%
    11:00 +8°C° 0 mm 4 mps 744 mmHg 79%
    12:00 +10°C° 0 mm 4 mps 744 mmHg 75%
    13:00 +10°C° 0 mm 4 mps 744 mmHg 70%
    14:00 +11°C° 0 mm 4 mps 744 mmHg 66%
    15:00 +10°C° 0 mm 4 mps 743 mmHg 66%
    16:00 +10°C° 0 mm 4 mps 743 mmHg 66%
    17:00 +8°C° 0 mm 4 mps 743 mmHg 67%
    18:00 +8°C° 0 mm 4 mps 743 mmHg 66%
    19:00 +8°C° 0 mm 5 mps 743 mmHg 64%
    20:00 +7°C° 0 mm 5 mps 744 mmHg 63%
    21:00 +7°C° 0 mm 5 mps 744 mmHg 63%
    22:00 +7°C° 0 mm 5 mps 744 mmHg 64%
    23:00 +7°C° 0 mm 6 mps 744 mmHg 64%

    Day after tomorrow, 21 November, Thursday

    Time Temperature Precipitation Wind Pressure Humidity
    00:00 +5°C° 0 mm 6 mps 744 mmHg 67%
    01:00 +5°C° 0 mm 6 mps 744 mmHg 69%
    02:00 +5°C° 0 mm 6 mps 744 mmHg 72%
    03:00 +4°C° 0.1 mm 6 mps 744 mmHg 74%
    04:00 +4°C° 0.1 mm 6 mps 744 mmHg 76%
    05:00 +4°C° 0.1 mm 6 mps 744 mmHg 79%
    06:00 +3°C° 0.9 mm 6 mps 744 mmHg 79%
    07:00 +3°C° 0.9 mm 6 mps 744 mmHg 79%
    08:00 +3°C° 0.9 mm 6 mps 745 mmHg 79%
    09:00 +3°C° 1.4 mm 7 mps 745 mmHg 80%
    10:00 +3°C° 1.4 mm 7 mps 745 mmHg 81%
    11:00 +2°C° 1.4 mm 8 mps 745 mmHg 83%
    12:00 +2°C° 0.4 mm 8 mps 745 mmHg 81%
    13:00 +2°C° 0.4 mm 8 mps 745 mmHg 80%
    14:00 +4°C° 0.4 mm 8 mps 745 mmHg 78%
    15:00 +2°C° 0.2 mm 8 mps 745 mmHg 76%
    16:00 +2°C° 0.2 mm 8 mps 745 mmHg 74%
    17:00 +1°C° 0.2 mm 8 mps 746 mmHg 72%
    18:00 +1°C° 0.1 mm 8 mps 746 mmHg 71%
    19:00 +2°C° 0.1 mm 7 mps 746 mmHg 69%
    20:00 0°C° 0.1 mm 7 mps 747 mmHg 68%
    21:00 0°C° 0 mm 7 mps 747 mmHg 66%
    22:00 -1°C° 0 mm 7 mps 747 mmHg 65%
    23:00 -1°C° 0 mm 7 mps 747 mmHg 63%

    22 November, Friday

    Time Temperature Precipitation Wind Pressure Humidity
    00:00 -2°C° 0 mm 7 mps 747 mmHg 63%
    01:00 -2°C° 0 mm 6 mps 747 mmHg 63%
    02:00 -3°C° 0 mm 6 mps 747 mmHg 62%
    03:00 -3°C° 0 mm 6 mps 747 mmHg 63%
    04:00 -4°C° 0 mm 6 mps 747 mmHg 63%
    05:00 -5°C° 0 mm 6 mps 747 mmHg 63%
    06:00 -5°C° 0 mm 6 mps 747 mmHg 64%
    07:00 -5°C° 0 mm 5 mps 747 mmHg 65%
    08:00 -6°C° 0 mm 5 mps 747 mmHg 66%
    09:00 -5°C° 0 mm 5 mps 747 mmHg 64%
    10:00 -5°C° 0 mm 5 mps 747 mmHg 62%
    11:00 -4°C° 0 mm 5 mps 747 mmHg 59%
    12:00 -2°C° 0 mm 5 mps 747 mmHg 58%
    13:00 -2°C° 0 mm 5 mps 747 mmHg 56%
    14:00 -2°C° 0 mm 5 mps 746 mmHg 55%
    15:00 -2°C° 0 mm 5 mps 746 mmHg 56%
    16:00 -3°C° 0 mm 4 mps 746 mmHg 56%
    17:00 -3°C° 0 mm 4 mps 746 mmHg 57%
    18:00 -3°C° 0 mm 4 mps 746 mmHg 60%
    19:00 -4°C° 0 mm 4 mps 746 mmHg 62%
    20:00 -4°C° 0 mm 4 mps 746 mmHg 64%
    21:00 -4°C° 0 mm 3 mps 746 mmHg 66%
    22:00 -4°C° 0 mm 3 mps 746 mmHg 69%
    23:00 -3°C° 0 mm 2 mps 745 mmHg 71%

    23 November, Saturday

    Time Temperature Precipitation Wind Pressure Humidity
    00:00 -2°C° 0 mm 3 mps 745 mmHg 70%
    01:00 -2°C° 0 mm 3 mps 745 mmHg 69%
    02:00 -1°C° 0 mm 3 mps 745 mmHg 69%
    03:00 -1°C° 0 mm 3 mps 744 mmHg 70%
    04:00 -1°C° 0 mm 3 mps 744 mmHg 70%
    05:00 -1°C° 0 mm 3 mps 744 mmHg 71%
    06:00 -2°C° 0 mm 4 mps 744 mmHg 72%
    07:00 -2°C° 0 mm 4 mps 744 mmHg 72%
    08:00 -2°C° 0 mm 4 mps 744 mmHg 73%
    09:00 -1°C° 0 mm 4 mps 744 mmHg 73%
    10:00 -1°C° 0 mm 4 mps 744 mmHg 74%
    11:00 0°C° 0 mm 4 mps 744 mmHg 74%
    12:00 0°C° 0 mm 5 mps 743 mmHg 74%
    13:00 +1°C° 0 mm 5 mps 743 mmHg 73%
    14:00 +2°C° 0 mm 5 mps 742 mmHg 73%
    15:00 +2°C° 0 mm 5 mps 742 mmHg 75%
    16:00 +2°C° 0 mm 5 mps 742 mmHg 77%
    17:00 +2°C° 0 mm 5 mps 742 mmHg 79%
    18:00 +2°C° 0 mm 5 mps 742 mmHg 79%
    19:00 +2°C° 0 mm 5 mps 742 mmHg 80%
    20:00 +2°C° 0 mm 5 mps 742 mmHg 81%
    21:00 +2°C° 0 mm 5 mps 742 mmHg 82%
    22:00 +1°C° 0 mm 5 mps 742 mmHg 82%
    23:00 +1°C° 0 mm 5 mps 742 mmHg 82%

    24 November, Sunday

    Time Temperature Precipitation Wind Pressure Humidity
    00:00 +1°C° 0 mm 4 mps 742 mmHg 83%
    01:00 0°C° 0 mm 4 mps 742 mmHg 84%
    02:00 +1°C° 0 mm 3 mps 742 mmHg 85%
    03:00 +1°C° 0 mm 3 mps 742 mmHg 85%
    04:00 +1°C° 0 mm 3 mps 741 mmHg 85%
    05:00 +1°C° 0 mm 3 mps 741 mmHg 85%
    06:00 0°C° 0.1 mm 3 mps 741 mmHg 83%
    07:00 0°C° 0.1 mm 3 mps 742 mmHg 82%
    08:00 0°C° 0.1 mm 3 mps 742 mmHg 81%
    09:00 +1°C° 0.1 mm 3 mps 742 mmHg 79%
    10:00 +1°C° 0.1 mm 3 mps 742 mmHg 77%
    11:00 +1°C° 0.1 mm 3 mps 742 mmHg 74%
    12:00 +2°C° 0 mm 3 mps 742 mmHg 73%
    13:00 +3°C° 0 mm 3 mps 742 mmHg 71%
    14:00 +3°C° 0 mm 3 mps 742 mmHg 70%
    15:00 +3°C° 0 mm 3 mps 742 mmHg 72%
    16:00 +3°C° 0 mm 3 mps 742 mmHg 74%
    17:00 +2°C° 0 mm 3 mps 742 mmHg 77%
    18:00 +2°C° 0 mm 3 mps 742 mmHg 77%
    19:00 +2°C° 0 mm 3 mps 742 mmHg 77%
    20:00 +1°C° 0 mm 3 mps 743 mmHg 77%
    21:00 +2°C° 0 mm 2 mps 743 mmHg 76%
    22:00 +3°C° 0 mm 2 mps 743 mmHg 76%
    23:00 +3°C° 0 mm 2 mps 743 mmHg 75%
    Show more